Jacksonville NAS, FL

5:13 PM EDT on May 25, 2018 (GMT -0400)
Jacksonville Naval Air Station

Weather History for KNIP - September, 2012

Change the Weather History Date:

Sunday, September 9, 2012

  Actual Average Record
Temperature  
Mean Temperature 84 °F -  
Max Temperature 91 °F 86 °F 95 °F (2015)
Min Temperature 78 °F 72 °F 69 °F (1997)
Cooling Degree Days 19    
Growing Degree Days 34 (Base 50)    
Moisture  
Dew Point 72 °F    
Average Humidity 73    
Maximum Humidity 90    
Minimum Humidity 52    
Precipitation  
Precipitation 0.08 in - - ()
Sea Level Pressure  
Sea Level Pressure 29.86 in    
Wind  
Wind Speed 8 mph (West)    
Max Wind Speed 15 mph    
Max Gust Speed 23 mph    
Visibility 10 miles    
Events Rain , Thunderstorm    
Averages and records for this station are not official NWS values.
T = Trace of Precipitation, MM = Missing Value Source: NWS Daily Summary

Daily Weather History Graph

Daily Weather History Graph

Search for Another Location

Airport or City:

Astronomy

Sep. 09, 2012 Rise Set
Actual Time 7:08 AM EDT 7:39 PM EDT
Civil Twilight 6:44 AM EDT 8:03 PM EDT
Nautical Twilight 6:15 AM EDT 8:31 PM EDT
Astronomical Twilight 5:46 AM EDT 9:00 PM EDT
Moon 12:55 AM EDT (9/9) 3:05 PM EDT (9/9)
Length of Visible Light 13h 19m
Length of Day
12h 30m
Last Quarter, 39% of the Moon is Illuminated
Sep 9
Last Quarter
Sep 15
New
Sep 22
First Quarter
Sep 29
Full
Oct 8
Last Quarter

Hourly Weather History & Observations

Time (EDT) Temp. Heat Index Dew Point Humidity Pressure Visibility Wind Dir Wind Speed Gust Speed Precip Events Conditions
12:53 AM 80.1 °F 84.2 °F 73.0 °F 79% 29.85 in 10.0 mi South 8.1 mph - 0.00 in   Overcast
1:00 AM - - - N/A% - - North - - N/A   Unknown
1:53 AM 81.0 °F 85.8 °F 73.0 °F 77% 29.83 in 10.0 mi South 11.5 mph - N/A   Overcast
2:53 AM 81.0 °F 86.2 °F 73.9 °F 79% 29.79 in 10.0 mi South 13.8 mph - 0.01 in Rain , Thunderstorm Light Thunderstorms and Rain
3:18 AM 80.6 °F 86.2 °F 75.2 °F 84% 29.81 in 10.0 mi South 11.5 mph 23.0 mph 0.02 in Rain Light Rain
3:53 AM 79.0 °F - 73.9 °F 84% 29.81 in 10.0 mi SW 5.8 mph - 0.05 in Rain Light Rain
4:36 AM 78.8 °F - 73.4 °F 83% 29.81 in 10.0 mi Calm Calm - 0.01 in   Overcast
4:53 AM 79.0 °F - 73.9 °F 84% 29.80 in 10.0 mi South 5.8 mph - 0.01 in   Overcast
5:53 AM 79.0 °F - 73.0 °F 82% 29.80 in 10.0 mi WSW 4.6 mph - N/A   Mostly Cloudy
6:53 AM 78.1 °F - 73.9 °F 87% 29.80 in 8.0 mi SSW 5.8 mph - 0.00 in Rain Light Rain
7:53 AM 78.1 °F - 75.0 °F 90% 29.81 in 10.0 mi SW 5.8 mph - 0.00 in   Overcast
8:31 AM 78.8 °F - 75.2 °F 89% 29.84 in 7.0 mi WSW 6.9 mph - 0.01 in   Overcast
8:53 AM 79.0 °F - 75.0 °F 88% 29.84 in 7.0 mi WSW 6.9 mph - 0.01 in   Overcast
9:53 AM 79.0 °F - 75.0 °F 88% 29.86 in 10.0 mi West 10.4 mph - 0.00 in   Overcast
10:53 AM 80.1 °F 85.1 °F 75.0 °F 85% 29.88 in 10.0 mi West 11.5 mph - 0.00 in   Overcast
11:53 AM 82.0 °F 87.4 °F 73.0 °F 74% 29.89 in 10.0 mi West 11.5 mph - N/A   Overcast
12:53 PM 84.0 °F 89.6 °F 72.0 °F 67% 29.89 in 10.0 mi West 8.1 mph 18.4 mph N/A   Mostly Cloudy
1:53 PM 86.0 °F 91.5 °F 71.1 °F 61% 29.89 in 10.0 mi West 11.5 mph - N/A   Mostly Cloudy
2:53 PM 87.1 °F 92.8 °F 71.1 °F 59% 29.86 in 10.0 mi NW 9.2 mph - N/A   Mostly Cloudy
3:53 PM 89.1 °F 94.1 °F 70.0 °F 53% 29.86 in 10.0 mi West 9.2 mph - N/A   Mostly Cloudy
4:53 PM 90.0 °F 95.4 °F 70.0 °F 52% 29.86 in 10.0 mi NW 8.1 mph - N/A   Mostly Cloudy
5:53 PM 90.0 °F 95.4 °F 70.0 °F 52% 29.86 in 10.0 mi WNW 8.1 mph - N/A   Mostly Cloudy
6:53 PM 88.0 °F 92.9 °F 70.0 °F 55% 29.87 in 10.0 mi WNW 6.9 mph - N/A   Mostly Cloudy
7:53 PM 86.0 °F 91.5 °F 71.1 °F 61% 29.88 in 10.0 mi NW 4.6 mph - N/A   Scattered Clouds
8:53 PM 84.9 °F 90.1 °F 71.1 °F 63% 29.90 in 10.0 mi West 4.6 mph - N/A   Scattered Clouds
9:53 PM 84.0 °F 89.0 °F 71.1 °F 65% 29.92 in 10.0 mi West 5.8 mph - N/A   Mostly Cloudy
10:53 PM 82.9 °F 87.0 °F 70.0 °F 65% 29.94 in 10.0 mi North 12.7 mph - N/A   Scattered Clouds
11:53 PM 82.0 °F 84.5 °F 66.9 °F 60% 29.95 in 10.0 mi North 15.0 mph - N/A   Mostly Cloudy